{"data":{"norad_id":63124,"intl_designator":"2025-039W","name":"STARLINK-32957","alt_names":[],"object_type":"PAYLOAD","status":"ACTIVE","operator":null,"country":"US","launch_date":"2025-02-27","launch_site_code":"AFETR","launch_vehicle":null,"mission":null,"orbit_class":"UNKNOWN","rcs_meters":null,"size_class":null,"mass_kg":null,"dimensions":null,"purposes":["comms"],"wikipedia_slug":null,"has_3d_model":false,"image_url":null,"decayed_at":null,"tle_current":{"epoch":"2026-09-21T17:02:03.031584Z","epoch_age_seconds":57675,"freshness":"FRESH","line1":"1 63124U 25039W   26264.70975731  .00012237  00000+0  45390-3 0  9992","line2":"2 63124  43.0006 345.9279 0000537 342.3879  17.6954 15.27548615 88047","mean_motion":15.27548615,"eccentricity":5.37e-5,"inclination_deg":43.0006,"raan_deg":345.9279,"arg_perigee_deg":342.3879,"mean_anomaly_deg":17.6954,"bstar":0.0004539,"rev_number":8804,"period_min":94.268685517416,"perigee_km":482.77462488934,"apogee_km":483.51152636946,"semimajor_km":6861.2800756294,"source":"CELESTRAK","updated_at":"2026-09-22T09:00:49.789367Z"}}}